[[{"header":{"parameterUnit":"m.s-1","parameterCategory":1,"la1":30.2991,"la2":30.254,"lo1":-89.0895,"lo2":-89.0444,"dy":0.0017,"dx":0.0017,"nx":28,"ny":28,"refTime":"2024-08-31T21:00:00:Z","depth":0,"parameterNumber":2,"parameterNumberName":"U-component_of_WINDS"},"data":[0,0,0,0,0,0,0,0,0,0,0,0,0,0,0,0,0,0,0,0,0,0,0,0,0,0,0,0,0,0,0,0,0,0,0,0,0,0,0,0,0,0,0,0,0,0,0,0,0,0,0,0,0,0,0,0,0,0,-1.1517,-1.1517,0,-1.1568,-1.1569,-1.157,-1.1557,-1.1556,-1.1555,-1.1554,-1.1604,-1.1606,-1.1608,0,0,0,0,0,0,0,0,0,0,0,0,0,-1.1404,-1.1406,-1.1517,-1.1517,-1.1518,-1.1568,-1.1569,-1.157,-1.1557,-1.1556,-1.1554,-1.1553,-1.1603,-1.1606,-1.1608,0,0,0,0,0,0,0,0,0,0,0,0,0,-1.1454,-1.1407,-1.1517,-1.1518,-1.1518,-1.1568,-1.1569,-1.157,-1.1557,-1.1555,-1.1554,-1.1553,-1.1602,-1.1605,-1.1609,-1.166,0,0,-1.1619,-1.162,0,0,0,0,0,0,0,0,-1.1451,-1.1458,-1.1517,-1.1518,-1.1519,-1.1555,-1.1548,-1.16,-1.1557,-1.1542,-1.1554,-1.1552,-1.1588,-1.1593,-1.1606,-1.1662,-1.1664,-1.1619,-1.1621,-1.1623,-1.1624,0,0,0,0,0,0,0,-1.1448,-1.1456,-1.1537,-1.1518,-1.1519,-1.1515,-1.152,-1.1558,-1.1573,-1.1543,-1.1543,-1.1549,-1.1588,-1.1602,-1.1607,-1.1665,-1.1619,-1.1622,-1.1624,-1.1626,-1.1766,-1.1767,0,0,0,0,0,0,-1.1444,-1.1453,-1.1536,-1.1539,-1.1481,-1.1518,-1.1524,-1.1544,-1.1573,-1.1575,-1.155,-1.1548,-1.1597,-1.1603,-1.1608,-1.167,-1.1623,-1.1626,-1.1628,-1.1764,-1.1766,-1.1768,0,0,0,0,0,0,-1.1442,-1.1452,-1.1533,-1.1496,-1.1506,-1.1522,-1.1545,-1.1546,-1.156,-1.1578,-1.158,-1.1562,-1.1596,-1.1604,-1.1647,-1.1672,-1.1628,-1.1631,-1.1762,-1.1765,-1.1767,-1.1794,0,0,0,0,0,0,-1.1439,-1.1451,-1.1471,-1.1496,-1.1508,-1.1572,-1.1546,-1.1548,-1.1567,-1.1564,-1.1589,-1.1592,-1.1596,-1.1642,-1.1651,-1.1676,-1.1633,-1.176,-1.1763,-1.1766,-1.1791,-1.1797,-1.1802,0,0,0,0,0,-1.1435,-1.1476,-1.1472,-1.1482,-1.1534,-1.1574,-1.158,-1.1585,-1.1569,-1.1589,-1.16,-1.1591,-1.1668,-1.1647,-1.1656,-1.1682,-1.1759,-1.1762,-1.1766,-1.1788,-1.1796,-1.1802,0,0,0,0,0,0,-1.1452,-1.1479,-1.1475,-1.1526,-1.1548,-1.1572,-1.1597,-1.1592,-1.1618,-1.1615,-1.1618,-1.1624,-1.1669,-1.168,-1.1656,-1.1733,-1.1711,-1.1716,-1.1724,-1.1732,-1.1737,-1.1733,-1.1636,0,0,0,0,0,-1.1462,-1.1493,-1.1515,-1.1558,-1.1569,-1.1581,-1.1599,-1.16,-1.1622,-1.1631,-1.1646,-1.1667,-1.1695,-1.1714,-1.1742,-1.1793,-1.1798,-1.1815,-1.1821,-1.1825,-1.183,-1.1858,-1.1866,-1.178,-1.178,-1.178,0,0,-1.1483,-1.1501,-1.1521,-1.1562,-1.1579,-1.161,-1.1589,-1.1623,-1.1646,-1.1636,-1.1678,-1.169,-1.1713,-1.1761,-1.1783,-1.1772,-1.1855,-1.183,-1.1834,-1.1836,-1.1863,-1.1871,-1.1878,-1.1783,-1.1783,-1.1782,0,0,-1.1536,-1.1554,-1.1591,-1.1609,-1.1635,-1.1643,-1.1652,-1.1677,-1.1684,-1.1727,-1.172,-1.1747,-1.1797,-1.1814,-1.1829,-1.1889,-1.1882,-1.1898,-1.1928,-1.1954,-1.1961,-1.1967,-1.1988,-1.1996,-1.1903,-1.1903,-1.1903,0,-1.1558,-1.1606,-1.1611,-1.1646,-1.1664,-1.1657,-1.1695,-1.1712,-1.1745,-1.1757,-1.1745,-1.1807,-1.1822,-1.1874,-1.1889,-1.1901,-1.1911,-1.1895,-1.196,-1.1966,-1.1972,-1.1992,-1.2,-1.1905,-1.1905,-1.1904,-1.1904,0,-1.1631,-1.1665,-1.1692,-1.1726,-1.1747,-1.1783,-1.1792,-1.1813,-1.1813,-1.1822,-1.1865,-1.1883,-1.1914,-1.1927,-1.1926,-1.1978,-1.1971,-1.1959,-1.1936,-1.1982,-1.2001,-1.2008,-1.1907,-1.1907,-1.1906,-1.1906,0,0,-1.1697,-1.1733,-1.1743,-1.1759,-1.1787,-1.1813,-1.1848,-1.1879,-1.1897,-1.192,-1.195,-1.1992,-1.1982,-1.1999,-1.2,-1.2024,-1.207,-1.201,-1.201,-1.202,-1.2128,-1.2137,-1.2146,-1.2066,-1.2068,-1.2069,-1.2126,0,-1.1753,-1.1817,-1.1822,-1.1879,-1.191,-1.1904,-1.1935,-1.1955,-1.1965,-1.1991,-1.2001,-1.2031,-1.2015,-1.2026,-1.2049,-1.206,-1.2092,-1.2056,-1.2093,-1.2094,-1.2087,-1.2156,-1.2165,-1.2218,-1.2134,-1.2135,-1.2136,0,-1.1827,-1.1853,-1.1914,-1.1938,-1.1951,-1.1979,-1.2008,-1.2034,-1.2057,-1.2062,-1.2082,-1.208,-1.2115,-1.2092,-1.2141,-1.2116,-1.2131,-1.2139,-1.2141,-1.2144,-1.2118,-1.2161,-1.2235,-1.2243,-1.2148,-1.2147,-1.2146,0,-1.1868,-1.1919,-1.1962,-1.1975,-1.2005,-1.2025,-1.2038,-1.2059,-1.2078,-1.2103,-1.2115,-1.2143,-1.2159,-1.2181,-1.2187,-1.2169,-1.2235,-1.2212,-1.224,-1.224,-1.2254,-1.2253,-1.2332,-1.2264,-1.2264,-1.2264,-1.2264,0,-1.193,-1.1967,-1.1981,-1.2007,-1.2049,-1.2054,-1.2094,-1.2106,-1.2125,-1.2153,-1.215,-1.2175,-1.2182,-1.2209,-1.2213,-1.2253,-1.226,-1.2264,-1.2265,-1.2265,-1.2264,-1.2275,-1.2271,-1.2266,-1.2266,-1.2265,-1.2265,0,-1.1984,-1.1995,-1.2041,-1.2066,-1.2073,-1.2102,-1.2122,-1.2147,-1.2156,-1.2191,-1.22,-1.2214,-1.2245,-1.2253,-1.229,-1.2294,-1.234,-1.2338,-1.2333,-1.2333,-1.236,-1.2358,-1.2449,-1.2461,-1.2385,-1.2386,-1.2387,0,-1.2023,-1.2051,-1.2079,-1.2098,-1.2113,-1.2143,-1.2162,-1.2168,-1.2188,-1.2216,-1.2238,-1.2269,-1.2294,-1.2345,-1.2357,-1.2386,-1.2384,-1.2414,-1.2388,-1.2387,-1.2384,-1.2382,-1.2385,-1.2419,-1.2419,-1.242,-1.2421,0,-1.2091,-1.2095,-1.2123,-1.2153,-1.2177,-1.22,-1.2223,-1.2239,-1.2248,-1.227,-1.2303,-1.2323,-1.2361,-1.2392,-1.2421,-1.2433,-1.2429,-1.2429,-1.2437,-1.2436,-1.2433,-1.2435,-1.2346,-1.2426,-1.2426,-1.2425,-1.2425,-1.2425,-1.2138,-1.2163,-1.2187,-1.2219,-1.2237,-1.2258,-1.2283,-1.2295,-1.2323,-1.2355,-1.2357,-1.2393,-1.2414,-1.2453,-1.2467,-1.2494,-1.2485,-1.2496,-1.2499,-1.2502,-1.2504,-1.2428,-1.2499,-1.2499,-1.2499,-1.2498,-1.2498,0,-1.2206,-1.2221,-1.225,-1.2283,-1.2307,-1.2301,-1.2326,-1.2347,-1.2379,-1.24,-1.2425,-1.2462,-1.2492,-1.2508,-1.2537,-1.2556,-1.2554,-1.2563,-1.2562,-1.2565,-1.2511,-1.2501,-1.2564,-1.2564,-1.2564,-1.2564,-1.2564,-1.2564,-1.2244,-1.2286,-1.2293,-1.2344,-1.2359,-1.2394,-1.2409,-1.2428,-1.2445,-1.2488,-1.2513,-1.2523,-1.2541,-1.2572,-1.2599,-1.2603,-1.2614,-1.2624,-1.2626,-1.2576,-1.2569,-1.2562,-1.2553,-1.2626,-1.2626,-1.2678,-1.2679,-1.2679]},{"header":{"parameterUnit":"m.s-1","parameterCategory":1,"la1":30.2991,"la2":30.254,"lo1":-89.0895,"lo2":-89.0444,"dy":0.0017,"dx":0.0017,"nx":28,"ny":28,"refTime":"2024-08-31T21:00:00:Z","depth":0,"parameterNumber":3,"parameterNumberName":"V-component_of_WINDS"},"data":[0,0,0,0,0,0,0,0,0,0,0,0,0,0,0,0,0,0,0,0,0,0,0,0,0,0,0,0,0,0,0,0,0,0,0,0,0,0,0,0,0,0,0,0,0,0,0,0,0,0,0,0,0,0,0,0,0,0,-0.2125,-0.2124,0,-0.2081,-0.208,-0.208,-0.2065,-0.2066,-0.2066,-0.2066,-0.2023,-0.2022,-0.202,0,0,0,0,0,0,0,0,0,0,0,0,0,-0.2197,-0.2195,-0.2125,-0.2124,-0.2124,-0.2081,-0.208,-0.208,-0.2065,-0.2066,-0.2066,-0.2066,-0.2023,-0.2022,-0.202,0,0,0,0,0,0,0,0,0,0,0,0,0,-0.2161,-0.2195,-0.2125,-0.2111,-0.211,-0.2081,-0.208,-0.208,-0.2065,-0.2066,-0.2066,-0.2066,-0.2024,-0.2022,-0.202,-0.2003,0,0,-0.2014,-0.2013,0,0,0,0,0,0,0,0,-0.2163,-0.2158,-0.2114,-0.2112,-0.211,-0.2079,-0.209,-0.2054,-0.2065,-0.2082,-0.2066,-0.2066,-0.2041,-0.2038,-0.2029,-0.2001,-0.1999,-0.2014,-0.2013,-0.2012,-0.2011,0,0,0,0,0,0,0,-0.2165,-0.216,-0.2108,-0.2113,-0.2111,-0.2108,-0.2103,-0.2083,-0.2061,-0.2081,-0.208,-0.2074,-0.2041,-0.2031,-0.2028,-0.1998,-0.2014,-0.2012,-0.2011,-0.201,-0.1951,-0.1951,0,0,0,0,0,0,-0.217,-0.2162,-0.2109,-0.2106,-0.2138,-0.2106,-0.2101,-0.2089,-0.2061,-0.2057,-0.2074,-0.2074,-0.2034,-0.2031,-0.2027,-0.2003,-0.2012,-0.201,-0.2009,-0.1952,-0.1951,-0.1951,0,0,0,0,0,0,-0.2171,-0.2165,-0.2111,-0.2134,-0.2126,-0.2105,-0.2091,-0.2088,-0.2078,-0.2056,-0.2052,-0.2069,-0.2035,-0.2029,-0.2008,-0.2002,-0.2009,-0.2007,-0.1952,-0.1951,-0.1951,-0.1957,0,0,0,0,0,0,-0.2173,-0.2166,-0.2159,-0.2134,-0.2125,-0.2093,-0.2091,-0.2087,-0.2075,-0.2074,-0.205,-0.2046,-0.2034,-0.2011,-0.2006,-0.1999,-0.2006,-0.1953,-0.1952,-0.1951,-0.1957,-0.1957,-0.1956,0,0,0,0,0,-0.2176,-0.2163,-0.2159,-0.2152,-0.2116,-0.2092,-0.2088,-0.2074,-0.2074,-0.2067,-0.2053,-0.2047,-0.2003,-0.2009,-0.2003,-0.1995,-0.1953,-0.1952,-0.1951,-0.1957,-0.1957,-0.1956,0,0,0,0,0,0,-0.2189,-0.216,-0.2154,-0.2133,-0.2115,-0.209,-0.208,-0.2073,-0.2056,-0.2056,-0.204,-0.2035,-0.2014,-0.2003,-0.201,-0.1976,-0.1978,-0.1976,-0.1984,-0.1984,-0.1983,-0.1986,-0.2004,0,0,0,0,0,-0.2189,-0.2172,-0.2147,-0.2131,-0.2122,-0.2103,-0.2092,-0.2082,-0.2064,-0.2057,-0.2041,-0.2023,-0.2005,-0.1994,-0.1976,-0.1956,-0.195,-0.1947,-0.1947,-0.1946,-0.1945,-0.1931,-0.193,-0.1948,-0.1948,-0.1948,0,0,-0.219,-0.2171,-0.2162,-0.2133,-0.2118,-0.21,-0.2097,-0.2079,-0.2065,-0.2054,-0.2032,-0.202,-0.2,-0.1978,-0.1968,-0.1968,-0.1938,-0.1945,-0.1945,-0.1943,-0.193,-0.1929,-0.1927,-0.1947,-0.1947,-0.1947,0,0,-0.2182,-0.2166,-0.215,-0.2135,-0.2112,-0.2099,-0.2095,-0.2071,-0.2062,-0.204,-0.203,-0.2015,-0.1985,-0.197,-0.1958,-0.1943,-0.1937,-0.1938,-0.1935,-0.1922,-0.1921,-0.1919,-0.1913,-0.1911,-0.1936,-0.1936,-0.1936,0,-0.2185,-0.2158,-0.2143,-0.2124,-0.2112,-0.2099,-0.2082,-0.2069,-0.2042,-0.2033,-0.2034,-0.1994,-0.198,-0.1954,-0.195,-0.1942,-0.1936,-0.194,-0.1922,-0.1921,-0.1919,-0.1913,-0.191,-0.1937,-0.1937,-0.1937,-0.1936,0,-0.2163,-0.2144,-0.2134,-0.2107,-0.2093,-0.2076,-0.2058,-0.2045,-0.2037,-0.2024,-0.2001,-0.1983,-0.1961,-0.1954,-0.1946,-0.1927,-0.1927,-0.1925,-0.1926,-0.1918,-0.1911,-0.1909,-0.1937,-0.1937,-0.1937,-0.1937,0,0,-0.2163,-0.2126,-0.2122,-0.2109,-0.2082,-0.2068,-0.205,-0.2027,-0.2016,-0.1998,-0.1982,-0.1956,-0.1953,-0.194,-0.1931,-0.192,-0.1907,-0.1919,-0.1918,-0.1916,-0.1883,-0.1884,-0.1882,-0.1903,-0.1903,-0.1902,-0.1885,0,-0.215,-0.2116,-0.2101,-0.2074,-0.2056,-0.2044,-0.2028,-0.201,-0.1997,-0.198,-0.1966,-0.1947,-0.1946,-0.1938,-0.1926,-0.1911,-0.19,-0.1912,-0.1888,-0.1887,-0.1892,-0.1879,-0.188,-0.1864,-0.1882,-0.1882,-0.1881,0,-0.2132,-0.2111,-0.2082,-0.2056,-0.2048,-0.2034,-0.2011,-0.1995,-0.1975,-0.1966,-0.1951,-0.1941,-0.1921,-0.1924,-0.1896,-0.1904,-0.1893,-0.1885,-0.1884,-0.188,-0.1883,-0.1874,-0.1859,-0.1856,-0.1878,-0.1878,-0.1878,0,-0.2133,-0.2099,-0.2076,-0.2066,-0.2035,-0.2025,-0.2012,-0.1991,-0.1978,-0.1959,-0.195,-0.1929,-0.1917,-0.1901,-0.1885,-0.1889,-0.1859,-0.186,-0.1851,-0.1851,-0.1844,-0.1845,-0.1827,-0.1839,-0.1839,-0.1839,-0.1839,0,-0.212,-0.2103,-0.2076,-0.2063,-0.2042,-0.2025,-0.2006,-0.1992,-0.1973,-0.1956,-0.1945,-0.1929,-0.1911,-0.1893,-0.1881,-0.1859,-0.1854,-0.1846,-0.1843,-0.1847,-0.1848,-0.1839,-0.1839,-0.1838,-0.1838,-0.1839,-0.1839,0,-0.2118,-0.21,-0.2074,-0.2047,-0.204,-0.2026,-0.2002,-0.1988,-0.1975,-0.1953,-0.1948,-0.1926,-0.1904,-0.1887,-0.186,-0.1852,-0.1828,-0.1825,-0.1835,-0.1833,-0.1824,-0.1824,-0.1799,-0.1794,-0.181,-0.181,-0.181,0,-0.2111,-0.2097,-0.2067,-0.2055,-0.2041,-0.2022,-0.2008,-0.199,-0.1976,-0.195,-0.1939,-0.1916,-0.1897,-0.1863,-0.1845,-0.1823,-0.1819,-0.1811,-0.1816,-0.1819,-0.1818,-0.1818,-0.1816,-0.1811,-0.1811,-0.1811,-0.1811,0,-0.21,-0.2091,-0.2071,-0.2047,-0.2031,-0.2011,-0.1992,-0.1982,-0.1961,-0.1946,-0.1923,-0.1908,-0.1878,-0.1856,-0.1832,-0.1818,-0.1811,-0.1809,-0.1806,-0.1809,-0.1814,-0.181,-0.1832,-0.181,-0.181,-0.181,-0.181,-0.181,-0.2095,-0.2081,-0.2057,-0.2035,-0.2018,-0.2,-0.1985,-0.1968,-0.1948,-0.1922,-0.1913,-0.1889,-0.1867,-0.1834,-0.182,-0.1801,-0.1801,-0.1796,-0.1795,-0.1794,-0.1793,-0.1818,-0.1797,-0.1797,-0.1797,-0.1797,-0.1797,0,-0.2082,-0.2066,-0.2045,-0.2017,-0.2,-0.1993,-0.1971,-0.1956,-0.1935,-0.1915,-0.1895,-0.1868,-0.1846,-0.1825,-0.1802,-0.179,-0.1786,-0.1785,-0.1785,-0.1782,-0.1796,-0.18,-0.1788,-0.1788,-0.1788,-0.1788,-0.1788,-0.1788,-0.2073,-0.2049,-0.2037,-0.2005,-0.1989,-0.1964,-0.1952,-0.1934,-0.1918,-0.1888,-0.1868,-0.1855,-0.1834,-0.1809,-0.1788,-0.1782,-0.1774,-0.1773,-0.1767,-0.178,-0.1781,-0.1782,-0.1786,-0.1772,-0.1771,-0.1754,-0.1754,-0.1754]}]]